Location: ??????
(38.5153°N, 23.0340°E)
Time: 13:38:37
(UTC+00:00)

S3M - Pass Details

Date: 13 December 2025
Orbit: 947 x 1004 km, 83.0° (Epoch: 17 January)

Event Time Altitude Azimuth Distance (km) Brightness Sun altitude
Rises 17:04:43 0° 171° (S) 3,712 7.1 -22.2°
Reaches altitude 10° 17:07:18 10° 167° (SSE) 2,763 6.4 -22.7°
Maximum altitude 17:13:27 55° 92° (E) 1,184 4.0 -23.9°
Enters shadow 17:14:35 49° 55° (NE) 1,271 4.2 -24.1°
